Home > Time Zones > World Clock > Weather > U.S.A. > Waco > Past weeks

Flag for U.S.A. Weather past 2 weeks in Waco, Texas, U.S.A.

Now
84 °F

Clear.


Feels Like: 88 °F
Forecast: 77 / 93 °F
Wind: 15 mph from South

Location: Waco Regional Airport

Current Time: Jul 5, 2015 at 10:41:24 PM

Latest Report: Jul 5, 2015 at 9:51 PM


Visibility: 10 mi

Pressure: 29.96 "Hg

Humidity: 63%

Dew point: 70 °F

Location of WacoLocation

Historic Weather in Waco — Graph

°F

Waco temperature yesterday

Maximum temperature yesterday: 94 °F (at 3:51 PM)
Minimum temperature yesterday: 75 °F (at 4:51 AM)
Average temperature yesterday: 84 °F

Past Weeks' High & Low Weather Summary

 TemperatureHumidityPressure
High94 °F (Jul 4, 3:51 PM)97% (Jun 24, 6:51 AM)30.17 "Hg (Jun 24, 6:51 AM)
Low70 °F (Jun 27, 2:57 AM)39% (Jun 28, 4:51 PM)29.87 "Hg (Jul 2, 8:51 PM)
Average82 °F72%30.00 "Hg
* Reported Jun 20 8:51 PM — Jul 5 8:51 PM, Waco, Weather by CustomWeather, © 2015

Note: Actual official high and low records may vary slightly from our data, if they occured in-between our weather recording intervals... More about our weather records

Advertising

Waco weather history for previous 24 hours

 ConditionsComfort  
Time TempWeatherWind HumidityBarometerVisibility
8:51 PM
Sun, Jul 5
86 °FSunny.12 mph57%29.93 "Hg10 mi
7:51 PM88 °FPassing clouds.18 mph54%29.91 "Hg10 mi
6:51 PM90 °FPassing clouds.18 mph52%29.90 "Hg10 mi
5:51 PM91 °FPassing clouds.22 mph50%29.92 "Hg10 mi
4:51 PM91 °FScattered clouds.18 mph50%29.93 "Hg10 mi
3:51 PM93 °FPassing clouds.16 mph47%29.96 "Hg10 mi
2:51 PM92 °FPassing clouds.17 mph47%29.98 "Hg10 mi
1:51 PM90 °FScattered clouds.18 mph50%30.00 "Hg10 mi
12:51 PM91 °FPassing clouds.20 mph49%30.01 "Hg10 mi
11:51 AM89 °FScattered clouds.20 mph52%30.03 "Hg10 mi
10:51 AM86 °FSunny.17 mph61%30.03 "Hg10 mi
9:51 AM84 °FPassing clouds.21 mph67%30.03 "Hg10 mi
8:51 AM82 °FPartly sunny.12 mph74%30.03 "Hg10 mi
7:51 AM78 °FSunny.13 mph84%30.03 "Hg10 mi
6:51 AM77 °FClear.12 mph88%30.02 "Hg10 mi
5:51 AM77 °FPassing clouds.9 mph88%30.00 "Hg10 mi
4:51 AM77 °FPassing clouds.9 mph90%29.98 "Hg10 mi
3:51 AM77 °FClear.10 mph88%29.97 "Hg10 mi
2:51 AM78 °FClear.12 mph84%29.97 "Hg10 mi
1:51 AM79 °FClear.14 mph82%29.97 "Hg10 mi
12:51 AM80 °FClear.13 mph79%29.96 "Hg10 mi
11:51 PM
Sat, Jul 4
81 °FClear.13 mph77%29.96 "Hg10 mi
10:51 PM82 °FClear.13 mph72%29.95 "Hg10 mi
Weather by CustomWeather, © 2015

See weather overviewHow to use our weather pages